FENGYUN 1C DEB, 36273

Orbit data source: Space-Track

FENGYUN 1C DEB, 36273 is space debris in SSO originally from a launch on Mon, 10 May 1999 UTC launched from the Taiyaun Space Center, China (TSC). Fengyun 1C debris stems from the Chinese weather satellite Fengyun-1C, which was intentionally destroyed by a Chinese anti-satellite missile in 2007. This event dramatically increased the amount of space debris, with thousands of trackable fragments posing hazards to satellites and human spaceflight. The Fengyun 1C debris cloud has become a focal point in discussions about space sustainability and the need for international regulations to prevent the creation of new debris.

Loading next visibility...
Identifier
36273, 1999-025DXA
Orbit
SSO
Country
Flag of CNCN / PRC
Related business
Manufacturer
Unknown
Mission
Spacecraft
Bus & Motor
Unknown
Mass
Unknown
Launch date (UTC)
1999-05-10 (27 years ago)
Launch vehicle
Unknown
Launch site
Taiyaun Space Center, China (TSC)
Object type
Payload
Rocket body
Debris
Shape & HBR
Unknown shape, 0.1 m
Radar Cross Section
Small (<0.1 m²)

Expand to show TLE details & history
Last TLE update: 4 days ago

TLE from 4 days ago
0 FENGYUN 1C DEB
1 36273U 99025DXA 26251.49931046  .00000276  00000-0  15628-3 0  9998
2 36273  99.5702 146.7874 0095985 316.6824  42.6830 14.16841588700532
Epoch: 2026-09-08T11:59Z
TLE epoch observation values (Epoch: 2026-09-08T11:59:00.423Z)
Latitude
-0.00005°
Longitude
-20.5292°
Altitude
788.331 km
Speed
7.486 km/s
True Right ascension
09h 47m 08s
True Declination
0° 00' 00"
Sunlit
Object was in daylight at epoch
Visualization orbit readout
Latitude
Unknown
Longitude
Unknown
Altitude
Unknown
Speed
Unknown
Apparent Right ascension
Unknown
Apparent Declination
Unknown
Sunlit
N/A
Visualization observer readout
Local Sidereal Time
08:48:17
Azimuth
Unknown
Elevation
Unknown
Doppler factor
Unknown
Orbital elements
Apogee altitude
902.478 km
Perigee altitude
764.041 km
Semi-major axis
7,211.397 km
Eccentricity
0.0096
Inclination
99.5702°
RAAN
146.7874°
Arg. of periapsis
316.6824°
True anomaly
43.43528°
Mean anomaly
42.683°
Eccentric anomaly
43.05848°
Mean motion
3.54417 °/min
Orbital period
101.58 mins
BSTAR
0.00015628
Loading maneuver chart data...
Computing Atmospheric mass density...

Documentation

Showing up to 5 results
|